Weather History for Cambridge, MD

Change the Weather History Date:

Thursday, February 7, 2013

  Actual Average (KESN) Record (KESN)
Temperature  
Mean Temperature 34 °F -  
Max Temperature 41 °F 41 °F 57 °F (2009)
Min Temperature 26 °F 24 °F 13 °F (1977)
Degree Days  
Heating Degree Days 32    
Moisture  
Dew Point 29 °F    
Average Humidity 78    
Maximum Humidity 100    
Minimum Humidity 61    
Precipitation  
Precipitation 0.00 in - - ()
Sea Level Pressure  
Sea Level Pressure 30.36 in    
Wind  
Wind Speed 3 mph (ENE)    
Max Wind Speed 12 mph    
Max Gust Speed 18 mph    
Visibility 10 miles    
Events      
Averages and records for this station are not official NWS values.
T = Trace of Precipitation, MM = Missing Value Source: NWS Daily Summary

Daily Weather History Graph

Daily Weather History Graph

Search for Another Location

Airport:

Trip Planner

Search our weather history database for the weather conditions in past years. The results will help you decide how hot, cold, wet, or windy it might be!

Date:

Astronomy

Feb. 07, 2013 Rise Set
Actual Time 7:03 AM EST 5:33 PM EST
Civil Twilight 6:36 AM EST 6:01 PM EST
Nautical Twilight 6:04 AM EST 6:32 PM EST
Astronomical Twilight 5:33 AM EST 7:03 PM EST
Moon 4:40 AM EST (2/7) 2:56 PM EST (2/7)
Length of Visible Light 11h 24m
Length of Day
10h 29m
Waning Crescent, 9% of the Moon is Illuminated
Feb 7
Waning Crescent
Feb 10
New
Feb 17
First Quarter
Feb 25
Full
Mar 4
Last Quarter

Hourly Weather History & Observations

Time (EST) Temp. Windchill Dew Point Humidity Pressure Visibility Wind Dir Wind Speed Gust Speed Precip Events Conditions
12:20 AM 28.4 °F - 26.6 °F 93% 30.35 in 10.0 mi Calm Calm - N/A   Clear
12:40 AM 28.4 °F - 26.6 °F 93% 30.36 in 10.0 mi Calm Calm - N/A   Clear
1:00 AM 28.4 °F - 26.6 °F 93% 30.37 in 10.0 mi Calm Calm - N/A   Clear
1:20 AM 28.4 °F - 26.6 °F 93% 30.37 in 10.0 mi Calm Calm - N/A   Clear
1:40 AM 28.4 °F - 26.6 °F 93% 30.39 in 10.0 mi Calm Calm - N/A   Clear
2:00 AM 28.4 °F - 26.6 °F 93% 30.40 in 10.0 mi Calm Calm - N/A   Clear
2:20 AM 28.4 °F - 26.6 °F 93% 30.39 in 10.0 mi Calm Calm - N/A   Clear
2:40 AM 28.4 °F - 26.6 °F 93% 30.40 in 10.0 mi Calm Calm - N/A   Clear
3:00 AM 26.6 °F - 24.8 °F 93% 30.40 in 10.0 mi Calm Calm - N/A   Clear
3:20 AM 26.6 °F - 26.6 °F 100% 30.40 in 10.0 mi Calm Calm - N/A   Clear
3:40 AM 28.4 °F - 26.6 °F 93% 30.39 in 10.0 mi Calm Calm - N/A   Clear
4:00 AM 28.4 °F - 26.6 °F 93% 30.38 in 10.0 mi Calm Calm - N/A   Clear
4:20 AM 28.4 °F - 28.4 °F 100% 30.38 in 10.0 mi Calm Calm - N/A   Clear
4:40 AM 28.4 °F - 28.4 °F 100% 30.38 in 10.0 mi Calm Calm - N/A   Clear
5:00 AM 28.4 °F - 28.4 °F 100% 30.38 in 10.0 mi Calm Calm - N/A   Clear
5:20 AM 30.2 °F 26.7 °F 28.4 °F 93% 30.38 in 10.0 mi NE 3.5 mph - N/A   Clear
5:40 AM 32.0 °F 28.7 °F 26.6 °F 80% 30.40 in 10.0 mi NE 3.5 mph - N/A   Clear
6:00 AM 32.0 °F 28.7 °F 26.6 °F 80% 30.41 in 10.0 mi NE 3.5 mph - N/A   Clear
6:20 AM 32.0 °F - 26.6 °F 80% 30.41 in 10.0 mi Calm Calm - N/A   Clear
6:40 AM 32.0 °F - 26.6 °F 80% 30.41 in 10.0 mi Calm Calm - N/A   Clear
7:00 AM 32.0 °F 27.5 °F 26.6 °F 80% 30.41 in 10.0 mi ENE 4.6 mph - N/A   Clear
7:20 AM 32.0 °F 28.7 °F 26.6 °F 80% 30.43 in 10.0 mi NE 3.5 mph - N/A   Clear
7:40 AM 32.0 °F - 26.6 °F 80% 30.44 in 10.0 mi Calm Calm - N/A   Mostly Cloudy
8:00 AM 32.0 °F 27.5 °F 26.6 °F 80% 30.43 in 10.0 mi ENE 4.6 mph - N/A   Overcast
8:20 AM 32.0 °F 28.7 °F 28.4 °F 87% 30.43 in 10.0 mi ENE 3.5 mph - N/A   Scattered Clouds
8:41 AM 32.0 °F 27.5 °F 26.6 °F 80% 30.44 in 10.0 mi ENE 4.6 mph - N/A   Clear
9:01 AM 35.6 °F 32.8 °F 30.2 °F 81% 30.44 in 10.0 mi ENE 3.5 mph - N/A   Clear
9:21 AM 35.6 °F 31.7 °F 28.4 °F 75% 30.44 in 10.0 mi ENE 4.6 mph - N/A   Clear
10:01 AM 35.6 °F 31.7 °F 28.4 °F 75% 30.45 in 10.0 mi ENE 4.6 mph - N/A   Clear
10:21 AM 37.4 °F 32.8 °F 28.4 °F 70% 30.46 in 10.0 mi East 5.8 mph - N/A   Clear
10:41 AM 37.4 °F 32.8 °F 28.4 °F 70% 30.46 in 10.0 mi East 5.8 mph - N/A   Mostly Cloudy
11:01 AM 37.4 °F 31.4 °F 26.6 °F 65% 30.45 in 10.0 mi East 8.1 mph - N/A   Overcast
11:21 AM 39.2 °F 32.5 °F 28.4 °F 65% 30.44 in 10.0 mi East 10.4 mph - N/A   Mostly Cloudy
11:41 AM 41.0 °F 34.7 °F 28.4 °F 61% 30.43 in 10.0 mi ESE 10.4 mph - N/A   Clear
12:01 PM 41.0 °F 34.7 °F 28.4 °F 61% 30.41 in 10.0 mi East 10.4 mph 18.4 mph N/A   Clear
12:21 PM 41.0 °F 35.8 °F 28.4 °F 61% 30.40 in 10.0 mi East 8.1 mph - N/A   Clear
12:41 PM 41.0 °F 35.2 °F 28.4 °F 61% 30.39 in 10.0 mi East 9.2 mph - N/A   Clear
1:01 PM 41.0 °F 35.2 °F 28.4 °F 61% 30.38 in 10.0 mi East 9.2 mph - N/A   Clear
1:21 PM 41.0 °F 37.1 °F 28.4 °F 61% 30.38 in 10.0 mi ESE 5.8 mph - N/A   Clear
1:41 PM 41.0 °F 35.2 °F 28.4 °F 61% 30.37 in 10.0 mi East 9.2 mph - N/A   Clear
2:01 PM 41.0 °F 35.8 °F 28.4 °F 61% 30.36 in 10.0 mi East 8.1 mph - N/A   Clear
2:21 PM 41.0 °F 35.8 °F 30.2 °F 65% 30.34 in 10.0 mi East 8.1 mph - N/A   Clear
2:41 PM 41.0 °F 34.7 °F 30.2 °F 65% 30.33 in 10.0 mi East 10.4 mph - N/A   Clear
3:01 PM 41.0 °F 34.7 °F 30.2 °F 65% 30.33 in 10.0 mi East 10.4 mph - N/A   Clear
3:21 PM 41.0 °F 34.7 °F 30.2 °F 65% 30.33 in 10.0 mi East 10.4 mph - N/A   Clear
3:41 PM 41.0 °F 34.3 °F 30.2 °F 65% 30.32 in 10.0 mi East 11.5 mph - N/A   Clear
4:01 PM 41.0 °F 35.2 °F 30.2 °F 65% 30.31 in 10.0 mi East 9.2 mph - N/A   Clear
4:21 PM 41.0 °F 35.8 °F 32.0 °F 70% 30.31 in 10.0 mi East 8.1 mph - N/A   Clear
4:41 PM 41.0 °F 34.3 °F 30.2 °F 65% 30.31 in 10.0 mi East 11.5 mph - N/A   Clear
5:01 PM 41.0 °F 36.4 °F 32.0 °F 70% 30.32 in 10.0 mi ESE 6.9 mph - N/A   Clear
5:22 PM 41.0 °F 35.2 °F 32.0 °F 70% 30.31 in 10.0 mi East 9.2 mph - N/A   Clear
5:42 PM 41.0 °F 37.1 °F 32.0 °F 70% 30.31 in 10.0 mi East 5.8 mph - N/A   Clear
6:02 PM 41.0 °F 39.0 °F 32.0 °F 70% 30.31 in 10.0 mi East 3.5 mph - N/A   Clear
6:22 PM 41.0 °F 39.0 °F 32.0 °F 70% 30.32 in 10.0 mi East 3.5 mph - N/A   Clear
6:42 PM 37.4 °F 34.9 °F 32.0 °F 81% 30.32 in 10.0 mi NNE 3.5 mph - N/A   Clear
7:02 PM 37.4 °F 34.9 °F 32.0 °F 81% 30.32 in 10.0 mi NE 3.5 mph - N/A   Clear
7:22 PM 37.4 °F 33.8 °F 32.0 °F 81% 30.32 in 10.0 mi NE 4.6 mph - N/A   Clear
8:02 PM 37.4 °F 33.8 °F 32.0 °F 81% 30.30 in 10.0 mi NE 4.6 mph - N/A   Scattered Clouds
8:21 PM 37.4 °F 32.8 °F 32.0 °F 81% 30.30 in 10.0 mi NE 5.8 mph - N/A   Overcast
8:42 PM 37.4 °F 32.8 °F 32.0 °F 81% 30.29 in 10.0 mi NE 5.8 mph - N/A   Scattered Clouds
9:02 PM 37.4 °F 33.8 °F 32.0 °F 81% 30.28 in 10.0 mi NE 4.6 mph - N/A   Mostly Cloudy
9:22 PM 37.4 °F 32.1 °F 32.0 °F 81% 30.27 in 10.0 mi NE 6.9 mph - N/A   Scattered Clouds
9:42 PM 37.4 °F 32.1 °F 32.0 °F 81% 30.26 in 10.0 mi NE 6.9 mph - N/A   Scattered Clouds
10:02 PM 37.4 °F 32.1 °F 32.0 °F 81% 30.25 in 10.0 mi NE 6.9 mph - N/A   Scattered Clouds
10:22 PM 37.4 °F 32.1 °F 32.0 °F 81% 30.23 in 10.0 mi NE 6.9 mph - N/A   Scattered Clouds
10:42 PM 37.4 °F 31.4 °F 32.0 °F 81% 30.22 in 10.0 mi NE 8.1 mph - N/A   Clear
11:02 PM 37.4 °F 30.8 °F 32.0 °F 81% 30.22 in 10.0 mi NE 9.2 mph - N/A   Scattered Clouds
11:22 PM 37.4 °F 31.4 °F 32.0 °F 81% 30.20 in 10.0 mi NE 8.1 mph - N/A   Mostly Cloudy